Daviess Cnty AP, Washington,, IN

5:18 AM EST on December 17, 2017 (GMT -0500)
Daviess County

Weather History for KDCY - March, 2014

Change the Weather History Date:

Thursday, March 27, 2014

  Actual Average (KLWV) Record (KLWV)
Temperature  
Mean Temperature 46 °F -  
Max Temperature 58 °F 56 °F 81 °F (2007)
Min Temperature 33 °F 36 °F 19 °F (2001)
Degree Days  
Heating Degree Days 20    
Moisture  
Dew Point 31 °F    
Average Humidity 55    
Maximum Humidity 80    
Minimum Humidity 40    
Precipitation  
Precipitation 0.07 in - - ()
Sea Level Pressure  
Sea Level Pressure 29.93 in    
Wind  
Wind Speed 14 mph (South)    
Max Wind Speed 30 mph    
Max Gust Speed 44 mph    
Visibility 10 miles    
Events Rain , Thunderstorm    
Averages and records for this station are not official NWS values.
T = Trace of Precipitation, MM = Missing Value Source: NWS Daily Summary

Daily Weather History Graph

Daily Weather History Graph

Search for Another Location

Airport or City:

Trip Planner

Search our weather history database for the weather conditions in past years. The results will help you decide how hot, cold, wet, or windy it might be!

Date:

Astronomy

Mar. 27, 2014 Rise Set
Actual Time 7:41 AM EDT 8:07 PM EDT
Civil Twilight 7:14 AM EDT 8:33 PM EDT
Nautical Twilight 6:43 AM EDT 9:05 PM EDT
Astronomical Twilight 6:11 AM EDT 9:37 PM EDT
Moon 5:29 AM EDT (3/27) 4:56 PM EDT (3/27)
Length of Visible Light 13h 19m
Length of Day
12h 26m
Waning Crescent, 13% of the Moon is Illuminated
Mar 27
Waning Crescent
Mar 30
New
Apr 7
First Quarter
Apr 15
Full
Apr 22
Last Quarter

Hourly Weather History & Observations

Time (EDT) Temp. Windchill Dew Point Humidity Pressure Visibility Wind Dir Wind Speed Gust Speed Precip Events Conditions
12:15 AM 34.0 °F 29.8 °F 20.5 °F 58% 30.17 in 10.0 mi SSE 4.6 mph - N/A   Clear
12:35 AM 33.1 °F 27.7 °F 21.7 °F 63% 30.17 in 10.0 mi SE 5.8 mph - N/A   Clear
12:55 AM 33.8 °F 28.6 °F 22.1 °F 62% 30.17 in 10.0 mi SSE 5.8 mph - N/A   Scattered Clouds
1:15 AM 35.4 °F 29.0 °F 21.0 °F 56% 30.16 in 10.0 mi SSE 8.1 mph - N/A   Mostly Cloudy
1:35 AM 37.2 °F 30.0 °F 19.0 °F 48% 30.15 in 10.0 mi SSE 10.4 mph - N/A   Overcast
1:55 AM 37.2 °F 30.6 °F 19.9 °F 50% 30.14 in 10.0 mi South 9.2 mph - N/A   Overcast
2:15 AM 37.4 °F 31.4 °F 19.9 °F 49% 30.14 in 10.0 mi SSE 8.1 mph - N/A   Scattered Clouds
2:35 AM 37.2 °F 32.6 °F 20.7 °F 51% 30.13 in 10.0 mi SSE 5.8 mph - N/A   Clear
2:55 AM 37.8 °F 31.3 °F 19.9 °F 49% 30.12 in 10.0 mi SSE 9.2 mph - N/A   Mostly Cloudy
3:15 AM 38.7 °F 31.8 °F 18.9 °F 45% 30.11 in 10.0 mi SSE 10.4 mph - N/A   Overcast
3:35 AM 39.0 °F 31.8 °F 19.2 °F 45% 30.10 in 10.0 mi SSE 11.5 mph - N/A   Overcast
3:55 AM 39.4 °F 31.8 °F 18.5 °F 43% 30.10 in 10.0 mi South 12.7 mph 18.4 mph N/A   Overcast
4:15 AM 39.2 °F 32.0 °F 19.9 °F 46% 30.08 in 10.0 mi SSE 11.5 mph - N/A   Overcast
4:35 AM 39.4 °F 32.3 °F 19.9 °F 46% 30.07 in 10.0 mi SSE 11.5 mph - N/A Rain Light Rain
4:55 AM 39.9 °F 32.5 °F 19.6 °F 44% 30.07 in 10.0 mi South 12.7 mph - N/A   Overcast
5:15 AM 39.4 °F 31.8 °F 21.2 °F 48% 30.08 in 10.0 mi South 12.7 mph - N/A   Light Drizzle
5:35 AM 37.6 °F 29.6 °F 25.3 °F 61% 30.07 in 10.0 mi SSE 12.7 mph - N/A Rain Light Rain
5:55 AM 36.7 °F 28.9 °F 27.7 °F 70% 30.05 in 7.0 mi SSE 11.5 mph - N/A Rain Light Rain
6:15 AM 36.5 °F 28.2 °F 28.6 °F 73% 30.03 in 10.0 mi SE 12.7 mph - N/A   Light Drizzle
6:35 AM 36.7 °F 28.9 °F 28.4 °F 72% 30.04 in 10.0 mi SSE 11.5 mph - N/A   Overcast
6:55 AM 37.4 °F 30.3 °F 28.6 °F 70% 30.03 in 10.0 mi SSE 10.4 mph - N/A   Overcast
7:15 AM 37.8 °F 28.6 °F 28.4 °F 69% 30.03 in 10.0 mi SSE 16.1 mph - N/A   Overcast
7:35 AM 38.5 °F 31.1 °F 28.0 °F 66% 30.03 in 10.0 mi SSE 11.5 mph - N/A   Overcast
7:55 AM 38.5 °F 31.1 °F 28.0 °F 66% 30.02 in 10.0 mi SSE 11.5 mph - N/A   Overcast
8:15 AM 38.7 °F 30.5 °F 27.7 °F 65% 30.01 in 10.0 mi SSE 13.8 mph 18.4 mph N/A   Overcast
8:35 AM 39.6 °F 32.1 °F 27.1 °F 61% 30.01 in 10.0 mi SSE 12.7 mph - N/A Rain Light Rain
8:55 AM 40.1 °F 32.0 °F 26.8 °F 59% 30.00 in 10.0 mi SSE 15.0 mph - N/A   Overcast
9:15 AM 40.5 °F 31.2 °F 27.7 °F 60% 29.99 in 10.0 mi SSE 19.6 mph - N/A   Overcast
9:35 AM 41.0 °F 32.2 °F 27.5 °F 59% 29.98 in 10.0 mi South 18.4 mph - N/A   Overcast
9:55 AM 41.4 °F 32.7 °F 28.4 °F 60% 29.98 in 10.0 mi South 18.4 mph 24.2 mph N/A   Overcast
10:15 AM 42.6 °F 34.9 °F 28.8 °F 58% 29.97 in 10.0 mi South 16.1 mph 23.0 mph N/A   Overcast
10:35 AM 43.3 °F 35.5 °F 28.9 °F 57% 29.97 in 10.0 mi South 17.3 mph - N/A   Overcast
10:55 AM 43.9 °F 36.5 °F 29.7 °F 57% 29.97 in 10.0 mi South 16.1 mph 20.7 mph N/A   Overcast
11:15 AM 44.8 °F 36.9 °F 29.8 °F 56% 29.97 in 10.0 mi South 19.6 mph 25.3 mph N/A   Overcast
11:35 AM 45.5 °F 37.3 °F 29.8 °F 54% 29.96 in 10.0 mi South 21.9 mph 26.5 mph N/A   Overcast
11:55 AM 46.9 °F - 29.7 °F 51% 29.97 in 10.0 mi South 18.4 mph 27.6 mph N/A   Overcast
12:15 PM 48.9 °F - 29.5 °F 47% 29.97 in 10.0 mi South 16.1 mph 25.3 mph N/A   Overcast
12:35 PM 50.0 °F - 29.1 °F 45% 29.95 in 10.0 mi South 18.4 mph 27.6 mph N/A   Overcast
12:55 PM 50.7 °F - 29.7 °F 44% 29.94 in 10.0 mi South 19.6 mph 27.6 mph N/A   Overcast
1:15 PM 51.1 °F - 30.0 °F 44% 29.93 in 10.0 mi South 21.9 mph 27.6 mph N/A   Overcast
1:35 PM 52.7 °F - 31.5 °F 44% 29.92 in 10.0 mi South 19.6 mph 32.2 mph N/A   Overcast
1:55 PM 52.9 °F - 31.5 °F 44% 29.92 in 10.0 mi South 23.0 mph 28.8 mph N/A   Overcast
2:15 PM 53.1 °F - 31.5 °F 44% 29.91 in 10.0 mi South 19.6 mph 29.9 mph N/A   Overcast
2:35 PM 53.2 °F - 31.5 °F 43% 29.90 in 10.0 mi South 23.0 mph 29.9 mph N/A   Overcast
2:55 PM 54.5 °F - 32.2 °F 43% 29.88 in 10.0 mi South 24.2 mph 27.6 mph N/A   Overcast
3:15 PM 54.5 °F - 31.6 °F 42% 29.87 in 10.0 mi South 20.7 mph 31.1 mph N/A   Overcast
3:35 PM 56.1 °F - 32.5 °F 41% 29.85 in 10.0 mi South 27.6 mph 32.2 mph N/A   Overcast
3:55 PM 57.6 °F - 33.3 °F 40% 29.83 in 10.0 mi South 26.5 mph 33.4 mph N/A   Scattered Clouds
4:15 PM 58.1 °F - 33.8 °F 40% 29.82 in 10.0 mi South 20.7 mph 31.1 mph N/A   Mostly Cloudy
4:35 PM 57.6 °F - 34.2 °F 41% 29.81 in 10.0 mi South 24.2 mph 33.4 mph N/A   Overcast
4:55 PM 58.3 °F - 34.7 °F 41% 29.79 in 10.0 mi South 25.3 mph 31.1 mph N/A   Mostly Cloudy
5:15 PM 58.1 °F - 34.5 °F 41% 29.78 in 10.0 mi South 23.0 mph 31.1 mph N/A   Mostly Cloudy
5:35 PM 58.3 °F - 35.4 °F 42% 29.77 in 10.0 mi South 23.0 mph 26.5 mph N/A   Mostly Cloudy
5:55 PM 58.6 °F - 35.6 °F 42% 29.75 in 10.0 mi South 25.3 mph 29.9 mph N/A   Mostly Cloudy
6:15 PM 58.3 °F - 35.4 °F 42% 29.75 in 10.0 mi South 21.9 mph 32.2 mph N/A   Mostly Cloudy
6:35 PM 58.1 °F - 35.2 °F 42% 29.74 in 10.0 mi South 23.0 mph 35.7 mph N/A   Mostly Cloudy
6:55 PM 57.4 °F - 34.5 °F 42% 29.74 in 10.0 mi South 19.6 mph 29.9 mph N/A   Overcast
7:15 PM 53.4 °F - 39.2 °F 59% 29.78 in 5.0 mi South 19.6 mph 25.3 mph 0.04 in Rain , Thunderstorm Light Thunderstorms and Rain
7:35 PM 52.7 °F - 39.7 °F 61% 29.78 in 10.0 mi South 13.8 mph 20.7 mph 0.04 in Thunderstorm Thunderstorm
7:55 PM 50.5 °F - 41.7 °F 72% 29.76 in 7.0 mi South 11.5 mph - 0.06 in Rain Light Rain
8:15 PM 51.3 °F - 40.6 °F 67% 29.75 in 10.0 mi South 10.4 mph - N/A Rain Light Rain
8:35 PM 52.5 °F - 40.6 °F 64% 29.74 in 10.0 mi South 13.8 mph - N/A Rain Light Rain
8:55 PM 52.7 °F - 41.0 °F 64% 29.74 in 10.0 mi South 18.4 mph 24.2 mph N/A   Overcast
9:15 PM 55.0 °F - 41.5 °F 60% 29.74 in 10.0 mi South 19.6 mph 32.2 mph N/A   Overcast
9:35 PM 54.5 °F - 41.7 °F 62% 29.74 in 10.0 mi South 24.2 mph 32.2 mph N/A Rain , Thunderstorm Light Thunderstorms and Rain
9:55 PM 52.5 °F - 42.8 °F 70% 29.76 in 7.0 mi South 19.6 mph 28.8 mph 0.01 in Rain Rain
10:15 PM 52.2 °F - 42.6 °F 70% 29.76 in 10.0 mi SSW 23.0 mph 29.9 mph N/A Rain Light Rain
10:35 PM 51.8 °F - 43.3 °F 73% 29.76 in 10.0 mi South 23.0 mph 29.9 mph N/A   Overcast
10:55 PM 51.8 °F - 43.5 °F 73% 29.76 in 10.0 mi South 24.2 mph 33.4 mph N/A   Overcast
11:15 PM 51.8 °F - 44.2 °F 75% 29.77 in 10.0 mi South 23.0 mph 35.7 mph N/A   Overcast
11:35 PM 52.0 °F - 45.3 °F 78% 29.78 in 10.0 mi South 29.9 mph 43.7 mph N/A   Overcast
11:55 PM 52.3 °F - 46.4 °F 80% 29.79 in 10.0 mi South 26.5 mph 36.8 mph N/A   Overcast